TimeCDT,TemperatureF,Dew PointF,Humidity,Sea Level PressureIn,VisibilityMPH,Wind Direction,Wind SpeedMPH,Gust SpeedMPH,PrecipitationIn,Events,Conditions,WindDirDegrees,DateUTC
12:58 AM,73.2,60.6,65,30.04,10.0,ESE,9.2,-,N/A,,Clear,110,2013-08-27 05:58:00
1:58 AM,72.7,61.0,67,30.03,10.0,ESE,5.8,-,N/A,,Clear,120,2013-08-27 06:58:00
2:58 AM,70.9,60.6,70,30.03,10.0,ESE,4.6,-,N/A,,Clear,120,2013-08-27 07:58:00
3:58 AM,69.4,60.4,73,30.04,10.0,ESE,5.8,-,N/A,,Clear,120,2013-08-27 08:58:00
4:58 AM,68.2,60.4,76,30.04,10.0,ESE,3.5,-,N/A,,Clear,110,2013-08-27 09:58:00
5:58 AM,67.1,60.4,79,30.05,10.0,ESE,3.5,-,N/A,,Clear,110,2013-08-27 10:58:00
6:58 AM,66.4,60.6,82,30.07,10.0,East,5.8,-,N/A,,Clear,100,2013-08-27 11:58:00
7:58 AM,69.6,62.2,77,30.07,10.0,ESE,6.9,-,N/A,,Clear,120,2013-08-27 12:58:00
8:58 AM,76.3,65.3,69,30.09,10.0,SE,11.5,-,N/A,,Clear,130,2013-08-27 13:58:00
9:58 AM,81.3,66.7,61,30.09,10.0,SSE,8.1,-,N/A,,Clear,160,2013-08-27 14:58:00
10:58 AM,85.1,66.0,53,30.09,10.0,Variable,6.9,-,N/A,,Clear,0,2013-08-27 15:58:00
11:58 AM,88.7,65.3,46,30.06,10.0,SSE,11.5,-,N/A,,Mostly Cloudy,150,2013-08-27 16:58:00
12:03 PM,89.6,64.4,43,30.11,10.0,SSE,8.1,-,N/A,,Scattered Clouds,150,2013-08-27 17:03:00
12:58 PM,90.7,63.5,40,30.04,10.0,SE,8.1,-,N/A,,Clear,130,2013-08-27 17:58:00
1:58 PM,91.8,64.8,41,30.02,10.0,SE,12.7,24.2,N/A,,Mostly Cloudy,140,2013-08-27 18:58:00
2:58 PM,89.6,66.0,46,30.02,10.0,SE,12.7,-,N/A,,Scattered Clouds,140,2013-08-27 19:58:00
3:43 PM,91.4,66.2,43,30.04,10.0,South,15.0,20.7,N/A,,Mostly Cloudy,170,2013-08-27 20:43:00
3:53 PM,91.4,66.2,43,30.04,10.0,SSE,10.4,20.7,N/A,,Mostly Cloudy,150,2013-08-27 20:53:00
3:58 PM,91.4,65.5,42,30.00,10.0,SE,16.1,21.9,N/A,,Mostly Cloudy,140,2013-08-27 20:58:00
4:08 PM,91.4,64.4,41,30.04,10.0,SSE,15.0,19.6,N/A,,Scattered Clouds,150,2013-08-27 21:08:00
4:13 PM,91.4,64.4,41,30.04,10.0,SSE,17.3,-,N/A,,Mostly Cloudy,150,2013-08-27 21:13:00
4:28 PM,89.6,66.2,46,30.04,10.0,SSE,17.3,23.0,N/A,,Scattered Clouds,150,2013-08-27 21:28:00
4:48 PM,89.6,66.2,46,30.04,10.0,SE,17.3,26.5,N/A,,Mostly Cloudy,140,2013-08-27 21:48:00
4:58 PM,89.6,65.5,45,30.00,10.0,SE,16.1,-,N/A,,Mostly Cloudy,140,2013-08-27 21:58:00
5:18 PM,89.6,64.4,43,30.03,10.0,SSE,13.8,-,N/A,,Mostly Cloudy,150,2013-08-27 22:18:00
5:58 PM,89.1,64.9,45,29.98,10.0,SSE,11.5,-,N/A,,Scattered Clouds,150,2013-08-27 22:58:00
6:25 PM,86.0,69.8,58,30.02,10.0,ESE,24.2,27.6,N/A,,Mostly Cloudy,120,2013-08-27 23:25:00
6:35 PM,86.0,68.0,55,30.02,10.0,SE,18.4,26.5,N/A,,Scattered Clouds,130,2013-08-27 23:35:00
6:58 PM,85.5,68.9,57,29.98,10.0,SE,17.3,-,N/A,,Clear,130,2013-08-27 23:58:00
7:58 PM,84.2,66.4,55,29.98,10.0,SSE,16.1,20.7,N/A,,Mostly Cloudy,150,2013-08-28 00:58:00
8:58 PM,82.0,65.7,57,29.99,10.0,SSE,15.0,-,N/A,,Mostly Cloudy,150,2013-08-28 01:58:00
9:58 PM,80.2,65.7,61,30.00,10.0,SSE,10.4,-,N/A,,Mostly Cloudy,150,2013-08-28 02:58:00
10:58 PM,78.3,66.6,67,30.01,10.0,SE,8.1,-,N/A,,Mostly Cloudy,130,2013-08-28 03:58:00
11:33 PM,77.0,68.0,74,30.05,10.0,SE,8.1,-,N/A,,Overcast,130,2013-08-28 04:33:00
11:58 PM,78.6,68.2,70,30.00,10.0,SE,6.9,-,N/A,,Overcast,130,2013-08-28 04:58:00